EHI
0 0 0 0 0 0 0 0 0 0 0 0 0 0 0 0 0 0 0 0 0 0 0 0 0 0 0 0 0 0 0 0 0 0 0 0 0 0
0 0 0 0 0 0 0 0 0 0 0 0 0 0 0 0 0 0 0 0 0 0 0 0 0 0 0 0 0 0 0 0 0 0 0 0 0 0
0 0 0 0 0 0 0 0 0 0 0 0 0 0 0 0 0 0 0 0 0 0 0 0 0 0 0 0 0 0 0 0 0 0 0 0 0 0
0 0 0 0 0 0 0 0 0 0 0 0 0 0 0 0 0 0 0 0 0 0 0 0 0 0 0 0 0 0 0 0 0 0 0 0 0 0
0 0 0 0 0 0 0 0 0 0 0 0 0 0 0 0 0 0 0 0 0 0 0 0 0 0 0 0 0 0 0 0 0 0 0 0 0 0
0 0 0 0 0 0 0 0 0 0 0 0 0 0 0 0 0 0 0 0 0 0 0 0 0 0 0 0 0 0 0 0 0 0 0 0 0 0
0 0 0 0 0 0 0 0 0 0 0 0 0 0 0 0 0 0 0 0 0 0 0 0 0 0 0 0 0 0 0 0 0 0 0 0 0 0
0 0 0 0 0 0 0 0 0 0 0 0 0 0 0 0 0 0 0 0 0 0 0 0 0 0 0 0 0 0 0 0 0 0 0 0 0 0
0 0 0 0 0 0 0 0 0 0 0 0 0 0 0 0 0 0 0 0 0 0 0 0 0 0 0 0 0 0 0 0 0 0 0 0 0 0
0 0 0 0 0 0 0 0 0 0 0 0 0 0 0 0 0 0 0 0 0 0 0 0 0 0 0 0 0 0 0 0 0 0 0 0 0 0
0 0 0 0 0 0 0 0 0 0 0 0 0 0 0 0 0 0 0 0 0 0 0 0 0 0 0 0 0 0 0 0 0 0 0 0 0 0
0 0 0 0 0 0 0 0 0 0 0 0 0 0 0 0 0 0 0 0 0 0 0 0 0 0 0 0 0 0 0 0 0 0 0 0 0 0
0 0 0 0 0 0 0 0 0 0 0 0 0 0 0 0 0 0 0 0 0 0 0 0 0 0 0 0 0 0 0 0 0 0 0 0 0 0
0 0 0 0 0 0 0 0 0 0 0 0 0 0 0 0 0 0 0 0 0 0 0 0 0 0 0 0 0 0 0 0 0 0 0 0 0 0
0 0 0 0 0 0 0 0 0 0 0 0 0 0 0 0 0 0 0 0 0 0 0 0 0 0 0 0 0 0 0 0 0 0 0 0 0 0
0 0 0 0 0 0 0 0 0 0 0 0 0 0 0 0 0 0 0 0 0 0 0 0 0 0 0 0 0 0 0 0 0 0 0 0 0 0
0 0 0 0 0 0 0 0 0 0 0 0 0 0 0 0 0 0 0 0 0 0 0 0 0 0 0 0 0 0 0 0 0 0 0 0 0 0
0 0 0 0 0 0 0 0 0 0 0 0 0 0 0 0 0 0 0 0 0 0 0 0 0 0 0 0 0 0 0 0 0 0 0 0 0 0
0 0 0 0 0 0 0 0 0 0 0 0 0 0 0 0 0 0 0 0 0 0 0 0 0 0 0 0 0 0 0 0 0 0 0 0 0 0
0 0 0 0 0 0 0 0 0 0 0 0 0 0 0 0 0 0 0 0 0 0 0 0 0 0 0 0 0 0 0 0 0 0 0 0 0 0
0 0 0 0 0 0 0 0 0 0 0 0 0 0 0 0 0 0 0 0 0 0 0 0 0 0 0 0 0 0 0 0 0 0 0 0 0 0
0 0 0 0 0 0 0 0 0 0 0 0 0 0 0 0 0 0 0 0 0 0 0 0 0 0 0 0 0 0 0 0 0 0 0 0 0 0
0 0 0 0 0 0 0 0 0 0 0 0 0 0 0 0 0 0 0 0 0 0 0 0 0 0 0 0 0 0 0 0 0 0 0 0 0 0
Wind_Speed
5 4 3 4 4 5 6 6 10 18 16 7 5 5 5 5 13 10 9 20 29 31 32 32 33 33 32 32 31 30 30 31 31 32 32 32 32 32
4 5 5 5 5 5 5 6 7 12 17 11 8 6 7 10 17 12 10 26 28 30 32 32 32 32 33 33 32 31 31 31 32 33 33 32 32 32
5 6 6 7 6 6 6 7 7 8 15 17 12 9 9 9 11 8 10 10 13 27 31 33 34 34 33 33 32 32 32 33 33 33 33 33 33 32
7 7 7 7 8 7 7 8 9 9 12 18 16 12 11 10 10 9 11 12 10 23 30 32 32 32 32 33 33 33 33 33 33 33 33 33 33 33
7 7 8 8 9 9 10 10 9 10 9 13 16 14 12 10 10 12 11 9 13 18 25 28 30 32 33 33 34 34 33 33 32 32 32 32 33 33
7 7 8 8 10 11 11 10 10 11 11 12 14 13 12 9 9 11 13 8 11 13 19 22 26 30 31 32 32 33 33 33 33 32 32 32 32 32
7 7 8 14 20 17 15 13 13 12 13 13 14 14 13 11 11 11 15 13 10 10 11 11 12 11 14 22 28 30 32 32 32 32 31 31 31 31
8 8 10 12 17 24 27 27 24 19 17 16 15 15 16 14 13 14 15 16 14 6 9 12 11 12 11 10 22 31 32 32 32 32 32 31 31 30
9 9 11 13 19 12 19 25 22 27 27 18 16 16 17 16 17 18 16 16 17 12 12 15 10 12 11 15 28 32 33 33 33 33 33 32 31 30
9 10 11 11 13 19 17 16 14 13 17 14 12 14 15 15 14 16 17 17 15 11 11 15 12 13 14 12 25 32 33 33 33 32 32 31 31 30
9 9 12 12 23 29 20 17 14 12 18 24 25 24 28 29 23 14 13 13 15 13 9 11 14 14 13 14 17 28 30 30 30 30 30 29 28 27
8 8 16 21 27 29 17 12 14 15 14 14 16 19 16 17 22 14 12 13 14 13 8 8 12 12 11 9 9 9 13 22 28 29 30 29 28 17
10 9 10 26 28 28 23 11 19 20 12 13 13 13 12 11 11 12 12 12 13 14 12 11 12 12 12 12 9 9 11 12 13 17 23 27 28 22
10 10 13 26 27 26 19 21 26 21 11 12 12 12 12 12 12 13 15 15 14 17 17 16 13 13 13 15 13 8 8 10 12 13 12 18 22 26
10 20 24 25 23 16 20 24 19 11 11 11 12 12 11 12 13 13 13 13 14 14 14 14 14 12 11 13 13 12 12 11 10 10 10 10 10 10
10 14 20 20 17 18 17 13 10 10 12 11 12 12 11 11 11 11 13 12 12 12 9 10 11 13 11 12 12 14 12 10 9 9 7 6 7 8
14 7 8 10 10 10 11 10 10 11 11 11 12 13 13 13 12 11 11 11 11 12 12 9 9 9 10 10 9 11 12 11 10 8 4 2 2 5
15 9 10 10 11 12 12 12 12 11 11 12 12 12 13 13 13 12 11 11 11 11 11 10 10 9 6 5 8 10 10 9 8 7 5 4 4 2
10 9 10 10 11 11 11 11 12 12 11 11 12 12 12 12 12 12 11 11 10 10 10 9 9 7 8 9 10 11 9 8 8 9 9 8 8 7
8 9 10 11 11 11 11 11 12 12 11 11 12 12 11 12 12 12 11 11 11 10 10 9 8 8 7 7 7 9 16 11 8 9 10 9 10 13
10 10 10 10 11 11 11 11 12 12 12 12 12 12 11 11 11 11 10 15 12 8 9 9 9 14 8 5 5 7 10 19 19 11 8 8 11 13
10 11 11 11 11 11 11 11 12 12 13 12 11 11 11 11 11 12 10 9 8 8 7 7 9 8 6 7 7 8 10 12 18 28 29 22 11 10
11 11 11 11 11 10 11 12 14 13 12 12 11 11 11 11 10 9 9 8 7 7 6 6 7 6 6 6 7 8 12 12 11 14 18 27 30 29
Wind_Direction
302 303 302 296 297 292 292 295 301 307 304 295 282 252 254 263 281 288 276 290 296 296 296 295 293 291 288 286 286 286 287 286 284 281 278 276 273 272
298 302 299 296 295 291 288 286 282 289 296 301 295 281 275 288 293 290 280 292 295 296 294 292 292 291 289 287 285 285 286 285 283 281 278 276 273 271
294 299 291 294 297 298 292 287 283 282 290 298 298 294 281 275 282 267 273 273 279 290 293 292 292 290 288 287 286 286 286 284 283 281 279 277 275 273
289 288 288 303 302 299 294 288 287 280 283 294 300 302 292 285 283 276 289 288 283 290 292 293 293 292 291 289 288 287 285 283 281 279 278 276 274 273
283 281 286 295 299 297 294 290 287 290 286 291 295 296 294 292 293 291 285 280 286 290 292 291 290 290 289 288 287 286 285 283 281 278 276 274 272 270
279 276 280 287 292 296 297 290 295 297 293 290 291 294 296 293 291 297 298 281 282 286 285 285 287 289 288 289 288 287 285 283 279 276 272 270 268 266
289 281 284 302 308 308 307 308 305 299 299 299 298 299 300 303 301 299 297 296 282 278 281 280 282 278 279 281 283 282 280 277 275 273 272 270 268 266
306 300 297 304 306 313 312 307 305 305 304 301 301 302 303 301 301 299 299 301 298 284 281 286 280 278 275 269 275 278 277 277 276 275 274 272 270 268
307 305 309 311 314 299 299 304 304 302 303 303 301 301 301 303 302 302 300 298 295 297 292 289 281 279 277 278 282 281 280 279 277 274 271 269 266 264
297 295 296 300 303 308 305 305 301 301 301 301 294 296 300 300 298 300 298 296 292 286 283 288 289 284 283 278 280 280 279 277 275 272 268 265 262 260
293 295 304 304 306 313 316 312 312 307 309 309 310 309 308 309 308 306 303 301 298 295 286 282 288 289 284 278 275 278 278 278 277 274 270 265 261 256
301 294 308 313 313 319 321 319 316 311 314 317 313 308 305 302 307 306 301 296 296 296 288 281 289 296 290 265 259 267 273 275 275 274 270 266 260 254
316 314 308 316 321 326 329 321 312 320 324 316 310 307 307 306 306 303 297 293 292 289 291 293 290 289 285 291 283 268 265 267 268 266 265 262 257 248
315 312 313 322 328 330 328 319 324 330 320 312 310 311 312 310 308 304 298 292 284 284 287 289 287 289 292 292 295 287 276 270 266 261 252 252 250 244
313 319 324 328 330 327 320 324 329 323 315 314 314 312 307 302 303 303 301 295 289 283 282 282 285 288 286 287 291 291 298 290 272 262 253 239 229 223
317 321 328 327 326 322 322 323 320 316 319 315 312 308 307 306 307 308 309 310 307 304 291 280 283 289 289 284 282 287 291 288 290 282 265 242 219 209
331 325 322 323 323 321 320 320 320 321 320 315 312 312 312 311 310 311 308 309 309 311 316 314 304 293 278 272 283 289 296 296 292 294 286 264 208 194
337 326 322 321 320 321 321 320 320 319 317 314 311 310 311 311 311 312 312 312 313 315 316 318 324 324 320 285 264 296 309 315 325 341 4 31 45 68
332 320 318 318 317 316 315 315 314 313 312 310 309 309 309 309 310 313 316 317 318 318 319 321 326 329 332 331 322 328 336 340 355 15 25 33 40 43
322 318 316 315 314 313 313 312 311 311 311 309 308 307 307 309 310 312 315 317 320 322 323 326 331 334 326 313 310 326 2 14 11 20 25 33 43 50
321 317 314 312 310 309 309 308 307 306 306 306 305 305 307 308 308 309 311 319 325 324 326 327 323 329 323 323 346 9 21 33 42 35 17 33 47 52
318 315 311 308 308 307 307 306 306 304 305 304 303 304 304 305 306 307 311 318 320 321 318 318 326 336 352 9 19 24 36 40 44 49 50 51 51 55
315 312 309 307 306 305 305 304 303 301 301 300 300 300 302 303 303 304 309 314 316 322 327 332 342 351 1 10 22 35 45 49 51 55 56 57 64 67